This demonstration page uses our WeatherBlox Daily Observations layout. Learn more.

Left ArrowRight Arrow

38.20091, -84.87328

Hourly Observations for February 23, 2022

Temp ( °F °C ) Dew Point ( °F °C ) Humidity (%) Winds ( mph kmh ) Pressure ( in mb ) Visibility ( mi km ) Precip ( " mm )
12:05 am 00:05 Cloudy with Mist and Fog 54 12.2 53 11.7 97 97 WNW 15 24 30.05 1018 6 10 0.00 0.00
12:49 am 00:49 Cloudy 48 9 45 7 87 87 WNW 10 17 30.10 1019 7 11 0.00 0.00
12:53 am 00:53 Cloudy 48 8.9 45 7.2 89 89 WNW 10 17 30.08 1019 8 13 0.00 0.00
1:53 am 01:53 Cloudy 46 7.8 42 5.6 86 86 WNW 10 17 30.11 1020 10 16 0.00 0.00
2:43 am 02:43 Cloudy 43 6.1 38 3.3 82 82 WNW 7 11 30.15 1021 10 16 0.00 0.00
2:53 am 02:53 Cloudy 43 6.1 38 3.3 82 82 WNW 9 15 30.14 1021 10 16 0.00 0.00
3:39 am 03:39 Cloudy 41 5 37 2.8 86 86 WNW 8 13 30.19 1022 10 16 0.00 0.00
3:53 am 03:53 Cloudy 40 4.4 37 2.8 89 89 NW 9 15 30.16 1022 10 16 0.00 0.00
4:06 am 04:06 Cloudy with Mist and Fog 39 3.9 36 2.2 89 89 NW 14 22 30.21 1023 6 10 0.00 0.00
4:53 am 04:53 Cloudy with Mist and Fog 36 2.2 33 0.6 89 89 NW 10 17 30.22 1023 6 10 0.00 0.00
5:53 am 05:53 Cloudy 34 1.1 30 -1.1 85 85 NW 12 19 30.28 1025 10 16 0.00 0.00
6:25 am 06:25 Cloudy 33 0.6 30 -1.1 89 89 NW 12 19 30.33 1027 10 16 0.00 0.00
6:37 am 06:37 Cloudy 33 0.6 30 -1.1 89 89 NW 9 15 30.33 1027 10 16 0.00 0.00
6:53 am 06:53 Cloudy 33 0.6 30 -1.1 89 89 NW 7 11 30.30 1026 10 16 0.00 0.00
7:53 am 07:53 Cloudy 32 0 29 -1.7 88 88 N 8 13 30.32 1027 10 16 0.00 0.00
8:53 am 08:53 Cloudy 32 0 28 -2.2 85 85 NNW 9 15 30.36 1028 10 16 0.00 0.00
9:53 am 09:53 Cloudy 32 0 28 -2.2 85 85 N 9 15 30.36 1028 10 16 0.00 0.00
10:53 am 10:53 Cloudy 32 0 27 -2.8 82 82 N 9 15 30.37 1029 10 16 0.00 0.00
11:53 am 11:53 Cloudy 32 0 26 -3.3 79 79 NNW 10 17 30.38 1029 10 16 0.00 0.00
12:53 pm 12:53 Cloudy 32 0 26 -3.3 79 79 NW 9 15 30.38 1029 10 16 0.00 0.00
1:25 pm 13:25 Cloudy 32 0 25 -3.9 75 75 N 7 11 30.39 1029 10 16 0.00 0.00
1:53 pm 13:53 Cloudy 32 0 25 -3.9 75 75 NNW 7 11 30.39 1029 10 16 0.00 0.00
2:53 pm 14:53 Cloudy 33 0.6 25 -3.9 72 72 NW 8 13 30.36 1028 10 16 0.00 0.00
3:53 pm 15:53 Cloudy 33 0.6 25 -3.9 72 72 NNE 7 11 30.38 1029 10 16 0.00 0.00
4:53 pm 16:53 Cloudy 32 0 25 -3.9 75 75 NE 7 11 30.36 1028 10 16 0.00 0.00
5:53 pm 17:53 Cloudy 33 0.6 25 -3.9 72 72 NNW 7 11 30.42 1030 10 16 0.00 0.00
6:53 pm 18:53 Cloudy 32 0 25 -3.9 75 75 N 5 7 30.43 1030 10 16 0.00 0.00
7:53 pm 19:53 Cloudy 32 0 25 -3.9 75 75 NNE 5 7 30.41 1030 10 16 0.00 0.00
8:53 pm 20:53 Cloudy 32 0 25 -3.9 75 75 NNE 8 13 30.42 1030 10 16 0.00 0.00
9:53 pm 21:53 Cloudy 32 0 25 -3.9 75 75 NE 9 15 30.37 1028 10 16 0.00 0.00
10:53 pm 22:53 Cloudy 32 0 25 -3.9 75 75 ENE 12 19 30.32 1027 10 16 0.00 0.00
11:53 pm 23:53 Mostly Cloudy 32 0 26 -3.3 79 79 ENE 10 17 30.30 1026 10 16 0.00 0.00

Powered by AerisWeather